Regional Weather Roundup
Issued by NWS Kansas City/Pleasant Hill, MO

Home | Current Version | Previous Version | Graphics & Text | Print | Product List | Glossary Off
Versions: 1 2 3 4 5 6 7 8 9 10 11 12 13 14 15 16 17 18 19 20 21 22 23 24 25 26 27 28 29 30 31 32 33 34 35 36 37 38 39 40 41 42 43 44 45 46 47 48 49 50

000
ASUS43 KEAX 011910
RWREAX

WEATHER ROUNDUP FOR EASTERN KANSAS AND NORTHWEST MISSOURI
NATIONAL WEATHER SERVICE KANSAS CITY/PLEASANT HILL MO
200 PM CDT WED APR 01 2015

KSZ040-057-103>105-MOZ028-029-037-043-012000-
...KANSAS CITY METROPOLITAN AREA...

CITY           SKY/WX    TMP DP  RH WIND       PRES   REMARKS
K.C. INTL      PTSUNNY   79  57  46 SE18G28   29.79F
K.C. DOWNTOWN  LGT RAIN  79  56  45 S16G28    29.80F
LEES SUMMIT    PTSUNNY   74  55  51 S16G29    29.82F
OLATHE - IXD   PTSUNNY   77  58  51 SE20G26   29.81F
OLATHE - OJC   PTSUNNY   75  58  55 S18G24    29.81F
LAWRENCE       MOSUNNY   80  56  43 S21G29    29.78F

$$

MOZ001>008-011>017-020>025-030>033-038>040-044>046-053-054-012000-
...NORTHERN AND CENTRAL MISSOURI...

CITY           SKY/WX    TMP DP  RH WIND       PRES   REMARKS
ST. JOSEPH     SUNNY     80  54  40 SE21      29.76F
MOSBY          PTCLDY    77  52  41 SE13G21   29.80F
WARRENSBURG    MOSUNNY   77  46  33 SE20G25   29.85F
WHITEMAN AFB   MOSUNNY   78  51  39 S26       29.85S
CLINTON        CLOUDY    72  55  56 S16       29.88S
SEDALIA        MOSUNNY   80  45  28 SE20      29.87S
WARSAW         NOT AVBL
MARSHALL       PTSUNNY   81  50  34 S18G26    29.85F
CHILLICOTHE      N/A     78  50  37 SE14G25   29.82F
MOBERLY        PTSUNNY   75  43  31 SE16G24   29.88F
KIRKSVILLE     MOSUNNY   77  44  30 S26       29.87F

$$

MOZ041-047>049-056>058-063>065-088>090-097-012000-
...EASTERN AND SOUTHERN MISSOURI...

CITY           SKY/WX    TMP DP  RH WIND       PRES   REMARKS
ST. LOUIS INTL PTSUNNY   76  35  22 SE20G26   29.97F
SPIRIT OF STL  PTSUNNY   76  35  22 SE13G20   29.94F
COLUMBIA       MOSUNNY   77  44  30 SE17G24   29.88F
JEFFERSON CITY MOSUNNY   75  42  30 SE15G23   29.88F
MEXICO         MOSUNNY   77  48  36 SE16      29.91F
HANNIBAL       MOSUNNY   79  27  14 S16       29.91F
ROLLA          PTSUNNY   75  41  29 SE20G25   29.91F
LEBANON        PTSUNNY   70  50  49 SE13      29.93F
OSAGE BEACH    PTSUNNY   75  43  31 S13       29.91R
SPRINGFIELD    TSTM      61  58  90 S30G41    29.93R VSB 1
BRANSON        CLOUDY    63  61  94 SE7       29.95F
NEVADA         RAIN      61  59  94 S18G25    29.89S
JOPLIN         TSTM      61  59  93 SE14      29.88F FOG
WEST PLAINS    CLOUDY    66  45  46 SE14      29.98S

$$

IAZ060-094-KSZ022-034>040-054-083-096-NEZ052-066-093-012000-
...KANSAS...SOUTHEAST NEBRASKA AND IOWA...

CITY           SKY/WX    TMP DP  RH WIND       PRES   REMARKS
TOPEKA         MOSUNNY   79  49  34 S18G25    29.76F
MANHATTAN      MOSUNNY   83  49  30 S15G28    29.72F
EMPORIA        SUNNY     78  51  38 S22G35    29.77F
CHANUTE        SUNNY     76  56  49 SE20      29.81F
WICHITA        MOSUNNY   82  53  36 S21G31    29.73F
OMAHA          PTSUNNY   82  48  30 S21G39    29.66F
LINCOLN        SUNNY     83  47  28 S28G38    29.63F
FALLS CITY     SUNNY     80  47  31 S22G31    29.73F
LAMONI         SUNNY     78  44  29 S18G28    29.79F
DES MOINES     PTSUNNY   80  35  19 S26G38    29.77F

$$



USA.gov is the U.S. government's official web portal to all federal, state and local government web resources and services.